This is the latest recevied weather packets stored in our database for station/object KE0PRS. If no packets are shown the sender has not sent any weather packets the latest 10 day(s).
| Time | Temp. | Humidity | Pressure | Rain* | Wind** | Luminosity | Snow |
|---|---|---|---|---|---|---|---|
| 1777538483 | 6.67° C | 75% | 1019.2 hPa | 0 mm | - | 0 W/m² | - |
| 1777538180 | 6.67° C | 77% | 1019.3 hPa | 0 mm | - | 0 W/m² | - |
| 1777537875 | 6.11° C | 78% | 1019.5 hPa | 0 mm | - | 0 W/m² | - |
| 1777537572 | 6.11° C | 79% | 1019.4 hPa | 0 mm | - | 0 W/m² | - |
| 1777537268 | 5.56° C | 81% | 1019.7 hPa | 0 mm | - | 0 W/m² | - |
| 1777536963 | 5.56° C | 82% | 1019.7 hPa | 0 mm | - | 0 W/m² | - |
| 1777536662 | 5° C | 83% | 1019.7 hPa | 0 mm | - | 0 W/m² | - |
| 1777536359 | 5° C | 82% | 1019.7 hPa | 0 mm | - | 0 W/m² | - |
| 1777536055 | 5° C | 82% | 1019.8 hPa | 0 mm | - | 0 W/m² | - |
| 1777535750 | 5° C | 82% | 1019.9 hPa | 0 mm | - | 0 W/m² | - |
| 1777535448 | 4.44° C | 81% | 1019.9 hPa | 0 mm | - | 0 W/m² | - |
| 1777535145 | 4.44° C | 81% | 1019.9 hPa | 0 mm | - | 0 W/m² | - |
| 1777534841 | 4.44° C | 80% | 1020 hPa | 0 mm | - | 0 W/m² | - |
| 1777534538 | 5° C | 79% | 1020.1 hPa | 0 mm | - | 0 W/m² | - |
| 1777534236 | 5° C | 79% | 1020.3 hPa | 0 mm | - | 0 W/m² | - |
| 1777533933 | 5° C | 79% | 1020.3 hPa | 0 mm | - | 0 W/m² | - |
| 1777533630 | 5° C | 80% | 1020.1 hPa | 0 mm | - | 0 W/m² | - |
| 1777533326 | 4.44° C | 82% | 1020.2 hPa | 0 mm | - | 0 W/m² | - |
| 1777533022 | 4.44° C | 79% | 1020.2 hPa | 0 mm | - | 0 W/m² | - |
| 1777532720 | 5° C | 78% | 1020.3 hPa | 0 mm | - | 0 W/m² | - |
| 1777532416 | 5° C | 77% | 1020.2 hPa | 0 mm | - | 0 W/m² | - |
| 1777532113 | 5.56° C | 78% | 1020.4 hPa | 0 mm | - | 0 W/m² | - |
| 1777531809 | 5° C | 78% | 1020.6 hPa | 0 mm | - | 0 W/m² | - |
| 1777531504 | 5° C | 75% | 1020.4 hPa | 0 mm | - | 0 W/m² | - |
| 1777531203 | 5.56° C | 73% | 1020.4 hPa | 0 mm | - | 0 W/m² | - |
* Rain latest hour (hover to see other rain measurements)
** Current wind speed in m/s (hover to see current wind gust speed)